Home   Weather   Vientiane   Past weeks
Flag for Laos

Past Weather in Vientiane, Laos — Yesterday and Last 2 Weeks

Now
88 °F

Passing clouds.


Feels Like: 93 °F
Forecast: 91 / 71 °F
Wind: 5 mph from Northwest

Location: Vientiane Airport

Current Time: Oct 19, 2019 at 11:43:39 am

Latest Report: Oct 19, 2019 at 11:00 am


Visibility: 5 mi

Pressure: 30.01 "Hg

Humidity: 55%

Dew Point: 70 °F

Location of VientianeLocation

Past Weather in Vientiane — Graph

°F

Vientiane Temperature Yesterday

Maximum temperature yesterday: 93 °F (at 3:30 pm)
Minimum temperature yesterday: 72 °F (at 6:00 am)
Average temperature yesterday: 84 °F

High & Low Weather Summary for the Past Weeks

 TemperatureHumidityPressure
High93 °F (Oct 6, 2:30 pm)100% (Oct 4, 1:30 pm)30.04 "Hg (Oct 4, 1:30 pm)
Low72 °F (Oct 8, 6:00 am)41% (Oct 7, 4:00 pm)29.74 "Hg (Oct 11, 4:00 pm)
Average84 °F72%29.90 "Hg
* Reported Oct 4 10:00 am — Oct 19 10:30 am, Vientiane. Weather by CustomWeather, © 2019

Note: Actual official high and low records may vary slightly from our data, if they occured in-between our weather recording intervals... More about our weather records

Advertising

Vientiane Weather History for the Previous 24 Hours

Scroll right to see more
 ConditionsComfort  
Time TempWeatherWind HumidityBarometerVisibility
10:30 am
Sat, Oct 19
86 °FPassing clouds.2 mph62%30.04 "Hg5 mi
10:00 am84 °FPassing clouds.5 mph66%30.04 "Hg4 mi
9:30 am84 °FPassing clouds.7 mph66%30.04 "Hg4 mi
9:00 am84 °FClear.5 mph66%30.04 "Hg4 mi
8:30 am82 °FClear.5 mph62%30.04 "Hg4 mi
8:00 am82 °FPassing clouds.2 mph66%30.04 "Hg4 mi
7:30 am81 °FFog.2 mph70%30.04 "Hg3 mi
7:00 am75 °FFog.2 mph83%30.01 "Hg3 mi
6:30 am73 °FFog.5 mph83%30.01 "Hg3 mi
6:00 am72 °FFog.2 mph88%29.98 "Hg3 mi
11:00 pm
Fri, Oct 18
81 °FFog.12 mph66%29.98 "Hg2 mi
10:30 pm81 °FFog.12 mph66%29.98 "Hg2 mi
10:00 pm81 °FFog.9 mph66%29.98 "Hg2 mi
9:30 pm81 °FFog.12 mph70%29.98 "Hg2 mi
9:00 pm82 °FFog.9 mph66%29.95 "Hg2 mi
8:30 pm81 °FFog.5 mph70%29.95 "Hg3 mi
8:00 pm82 °FFog.7 mph66%29.92 "Hg3 mi
7:30 pm82 °FPassing clouds.2 mph66%29.92 "Hg4 mi
7:00 pm82 °FPassing clouds.2 mph66%29.92 "Hg4 mi
6:30 pm84 °FPassing clouds.5 mph58%29.89 "Hg4 mi
6:00 pm86 °FPassing clouds.5 mph55%29.89 "Hg4 mi
5:30 pm86 °FPartly sunny.7 mph55%29.89 "Hg4 mi
5:00 pm88 °FPartly sunny.7 mph52%29.89 "Hg5 mi
4:30 pm90 °FPartly sunny.12 mph49%29.89 "Hg5 mi
4:00 pm91 °FPartly sunny.7 mph46%29.89 "Hg5 mi
3:30 pm93 °FScattered clouds.5 mph47%29.89 "Hg5 mi
2:30 pm91 °FScattered clouds.5 mph46%29.89 "Hg5 mi
2:00 pm91 °FScattered clouds.5 mph49%29.89 "Hg5 mi
1:30 pm90 °FScattered clouds.5 mph52%29.92 "Hg5 mi
1:00 pm91 °FScattered clouds.2 mph49%29.92 "Hg5 mi
12:30 pm90 °FScattered clouds.5 mph52%29.95 "Hg5 mi
12:00 pm90 °FScattered clouds.7 mph52%29.95 "Hg5 mi
11:30 am90 °FPassing clouds.5 mph52%29.95 "Hg4 mi
11:00 am88 °FPassing clouds.5 mph55%29.98 "Hg4 mi
Weather by CustomWeather, © 2019

See weather overview